EW8310 Weather Reports


Display with metric or nautical units.
time (UTC)temp
F
wind
direction
speed
MPH
gust
MPH
rain 1hr
in
rain 24hr
in
rain mn
in
humidity
%
barometer
mb
20260904145245 78 286 0.0 0.0 0.00 0.00 0.00 69 1012.1
20260904144745 78 286 0.0 1.0 0.00 0.00 0.00 69 1012.0
20260904144245 78 286 0.0 1.0 0.00 0.00 0.00 70 1012.0
20260904143745 78 286 0.0 0.0 0.00 0.00 0.00 70 1011.8
20260904143240 78 286 0.0 0.0 0.00 0.00 0.00 70 1012.0
20260904143004 78 286 0.0 0.0 0.00 0.00 0.00 71 1011.8
20260904142445 78 285 0.0 0.0 0.00 0.00 0.00 71 1011.8
20260904142327 78 286 0.0 0.0 0.00 0.00 0.00 70 1011.8
20260904141833 78 286 0.0 0.0 0.00 0.00 0.00 71 1011.8
20260904140744 77 272 0.0 0.0 0.00 0.00 0.00 73 1011.7
20260904140244 76 272 0.0 0.0 0.00 0.00 0.00 73 1011.6
20260904135744 76 272 0.0 0.0 0.00 0.00 0.00 75 1011.6
20260904135244 76 272 0.0 0.0 0.00 0.00 0.00 75 1011.4
20260904134740 76 272 0.0 0.0 0.00 0.00 0.00 76 1011.4
20260904134250 75 272 0.0 0.0 0.00 0.00 0.00 77 1011.3
20260904133743 75 272 0.0 0.0 0.00 0.00 0.00 77 1011.3
20260904133729 75 272 0.0 0.0 0.00 0.00 0.00 77 1011.2
20260904132745 75 271 0.0 0.0 0.00 0.00 0.00 77 1011.1
20260904132246 75 271 0.0 0.0 0.00 0.00 0.00 76 1011.0
20260904131743 75 271 0.0 0.0 0.00 0.00 0.00 76 1010.9
20260904131243 75 271 0.0 1.0 0.00 0.00 0.00 75 1010.9
20260904130739 75 271 0.0 1.0 0.00 0.00 0.00 75 1010.7
20260904130238 76 303 0.0 0.0 0.00 0.00 0.00 74 1010.7
20260904125742 76 306 0.0 0.0 0.00 0.00 0.00 73 1010.5
20260904125242 76 306 0.0 0.0 0.00 0.00 0.00 73 1010.4
20260904124742 76 306 0.0 0.0 0.00 0.00 0.00 73 1010.3
20260904124242 76 306 0.0 0.0 0.00 0.00 0.00 73 1010.2
20260904123742 76 306 0.0 0.0 0.00 0.00 0.00 72 1010.2
20260904123241 76 306 0.0 0.0 0.00 0.00 0.00 72 1010.2
20260904122742 76 306 0.0 0.0 0.00 0.00 0.00 71 1010.0
20260904122238 76 306 0.0 0.0 0.00 0.00 0.00 72 1009.9
20260904121738 76 306 0.0 0.0 0.00 0.00 0.00 72 1009.9
20260904121243 77 306 0.0 0.0 0.00 0.00 0.00 71 1010.0
20260904120741 77 306 0.0 0.0 0.00 0.00 0.00 71 1010.0
20260904120240 77 306 0.0 0.0 0.00 0.00 0.00 70 1010.0
20260904115741 77 306 0.0 1.0 0.00 0.00 0.00 70 1010.0
20260904115241 77 299 0.0 1.0 0.00 0.00 0.00 70 1009.9
20260904114740 77 299 0.0 0.0 0.00 0.00 0.00 70 1010.0
20260904114503 77 299 0.0 0.0 0.00 0.00 0.00 70 1010.0
20260904113741 77 299 0.0 1.0 0.00 0.00 0.00 70 1010.0
20260904113236 77 299 0.0 1.0 0.00 0.00 0.00 69 1010.0
20260904113007 77 299 0.0 1.0 0.00 0.00 0.00 70 1009.9
20260904112722 78 299 0.0 0.0 0.00 0.00 0.00 69 1009.9
20260904111740 78 344 0.0 0.0 0.00 0.00 0.00 69 1009.9
20260904111240 78 344 0.0 0.0 0.00 0.00 0.00 69 1010.1
20260904110741 78 8 0.0 0.0 0.00 0.00 0.00 69 1010.0
20260904110724 78 11 0.0 0.0 0.00 0.00 0.00 70 1010.0
20260904105737 78 330 0.0 0.0 0.00 0.00 0.00 69 1010.0
20260904105237 78 330 0.0 0.0 0.00 0.00 0.00 69 1010.0
20260904104737 78 330 0.0 0.0 0.00 0.00 0.00 68 1010.0
20260904104239 78 330 0.0 0.0 0.00 0.00 0.00 69 1009.9
20260904103739 78 330 0.0 2.0 0.00 0.00 0.00 69 1009.9
20260904103239 78 330 0.0 2.0 0.00 0.00 0.00 69 1010.0
20260904102739 78 330 0.0 1.0 0.00 0.00 0.00 68 1010.0
20260904102239 78 330 0.0 2.0 0.00 0.00 0.00 68 1010.0
20260904101738 78 24 0.0 2.0 0.00 0.00 0.00 70 1010.0
20260904101239 78 296 0.0 0.0 0.00 0.00 0.00 70 1009.9
20260904100738 78 296 0.0 0.0 0.00 0.00 0.00 70 1010.0
20260904100238 78 296 0.0 0.0 0.00 0.00 0.00 69 1010.0
20260904100224 78 296 0.0 0.0 0.00 0.00 0.00 67 1010.0
20260904095238 78 296 0.0 0.0 0.00 0.00 0.00 68 1009.9
20260904094738 78 296 0.0 0.0 0.00 0.00 0.00 67 1010.0
20260904094238 78 302 0.0 0.0 0.00 0.00 0.00 70 1009.9
20260904093739 77 254 0.0 0.0 0.00 0.00 0.00 70 1009.9
20260904093238 78 202 0.0 0.0 0.00 0.00 0.00 70 1009.9
20260904092734 78 202 0.0 0.0 0.00 0.00 0.00 69 1009.9
20260904092234 77 202 0.0 0.0 0.00 0.00 0.00 69 1010.0
20260904091738 77 285 0.0 0.0 0.00 0.00 0.00 71 1010.0
20260904091237 76 344 0.0 0.0 0.00 0.00 0.00 73 1009.9
20260904090737 76 345 0.0 1.0 0.00 0.00 0.00 73 1010.0
20260904090237 76 344 0.0 1.0 0.00 0.00 0.00 73 1009.9
20260904090000 76 310 0.0 0.0 0.00 0.00 0.00 73 1010.0
20260904085239 76 310 0.0 0.0 0.00 0.00 0.00 72 1009.9
20260904085005 77 358 0.0 0.0 0.00 0.00 0.00 72 1009.9
20260904084237 77 0 0.0 0.0 0.00 0.00 0.00 72 1009.9
20260904083736 77 0 0.0 0.0 0.00 0.00 0.00 71 1009.9
20260904083237 78 0 0.0 1.0 0.00 0.00 0.00 70 1009.9
20260904082736 78 0 0.0 1.0 0.00 0.00 0.00 69 1009.9
20260904082444 77 351 0.0 0.0 0.00 0.00 0.00 70 1010.0
20260904082323 78 55 0.0 0.0 0.00 0.00 0.00 69 1010.0
20260904081236 77 350 0.0 0.0 0.00 0.00 0.00 69 1010.1
20260904080957 78 350 0.0 0.0 0.00 0.00 0.00 70 1010.1
20260904080236 78 350 0.0 0.0 0.00 0.00 0.00 68 1010.1
20260904075733 79 350 0.0 0.0 0.00 0.00 0.00 67 1010.0
20260904075501 79 350 0.0 0.0 0.00 0.00 0.00 65 1010.0
20260904074735 79 350 0.0 0.0 0.00 0.00 0.00 64 1010.1
20260904074236 79 350 0.0 0.0 0.00 0.00 0.00 64 1010.0
20260904074011 80 10 0.0 0.0 0.00 0.00 0.00 65 1010.0
20260904073235 80 337 0.0 0.0 0.00 0.00 0.00 64 1010.1
20260904072735 80 337 0.0 1.0 0.00 0.00 0.00 65 1010.1
20260904072455 80 347 0.0 2.0 0.00 0.00 0.00 65 1010.1
20260904071731 80 348 0.0 2.0 0.00 0.00 0.00 64 1010.1
20260904071231 80 345 0.0 2.0 0.00 0.00 0.00 65 1010.0
20260904070735 80 312 0.0 2.0 0.00 0.00 0.00 65 1010.2
20260904070234 80 258 0.0 1.0 0.00 0.00 0.00 65 1010.2
20260904065734 80 251 0.0 1.0 0.00 0.00 0.00 65 1010.2
20260904065234 80 251 0.0 1.0 0.00 0.00 0.00 64 1010.2
20260904064957 80 220 0.0 0.0 0.00 0.00 0.00 65 1010.2
20260904064234 80 220 0.0 0.0 0.00 0.00 0.00 64 1010.3
20260904063734 80 220 0.0 0.0 0.00 0.00 0.00 64 1010.3
20260904063233 80 220 0.0 1.0 0.00 0.00 0.00 63 1010.4
20260904062733 80 27 0.0 1.0 0.00 0.00 0.00 64 1010.3
20260904062233 80 147 0.0 1.0 0.00 0.00 0.00 63 1010.3
20260904061734 80 151 0.0 0.0 0.00 0.00 0.00 64 1010.3
20260904061233 79 152 0.0 3.0 0.00 0.00 0.00 64 1010.3
20260904060733 79 336 0.0 3.0 0.00 0.00 0.00 65 1010.2
20260904060233 79 62 0.0 0.0 0.00 0.00 0.00 66 1010.1
20260904055733 78 63 0.0 0.0 0.00 0.00 0.00 67 1010.2
20260904055229 78 62 0.0 0.0 0.00 0.00 0.00 67 1010.1
20260904054729 78 62 0.0 0.0 0.00 0.00 0.00 68 1010.0
20260904054232 78 62 0.0 1.0 0.00 0.00 0.00 68 1010.1
20260904053732 78 37 0.0 1.0 0.00 0.00 0.00 68 1010.0
20260904053232 78 148 0.0 0.0 0.00 0.00 0.00 68 1010.1
20260904052732 78 148 0.0 0.0 0.00 0.00 0.00 68 1010.0
20260904052232 79 178 0.0 0.0 0.00 0.00 0.00 67 1010.0
20260904051728 79 178 0.0 0.0 0.00 0.00 0.00 67 1010.0
20260904051228 79 178 0.0 0.0 0.00 0.00 0.00 66 1010.0
20260904050728 79 178 0.0 0.0 0.00 0.00 0.00 66 1010.0
20260904050231 79 178 0.0 0.0 0.00 0.00 0.00 65 1010.1
20260904045731 80 178 0.0 0.0 0.00 0.00 0.00 65 1010.1
20260904045231 80 178 0.0 0.0 0.00 0.00 0.00 64 1010.2
20260904044731 79 178 0.0 0.0 0.00 0.00 0.00 65 1010.2
20260904044226 79 178 0.0 0.0 0.00 0.00 0.00 64 1010.2
20260904043727 80 176 0.0 0.0 0.00 0.00 0.00 65 1010.3
20260904043227 80 176 0.0 0.0 0.00 0.00 0.00 64 1010.2
20260904042956 80 178 0.0 0.0 0.00 0.00 0.00 64 1010.2
20260904042444 80 176 0.0 0.0 0.00 0.00 0.00 64 1010.2
20260904041949 80 176 0.0 0.0 0.00 0.00 0.00 63 1010.2
20260904041230 81 176 0.0 0.0 0.00 0.00 0.00 63 1010.2
20260904040732 81 176 0.0 0.0 0.00 0.00 0.00 61 1010.2
20260904040455 81 176 0.0 0.0 0.00 0.00 0.00 60 1010.1
20260904035726 82 176 0.0 0.0 0.00 0.00 0.00 60 1010.1
20260904035227 82 178 0.0 0.0 0.00 0.00 0.00 60 1010.0
20260904034727 82 178 0.0 0.0 0.00 0.00 0.00 60 1010.1
20260904034227 82 178 0.0 0.0 0.00 0.00 0.00 58 1010.0
20260904033951 82 176 0.0 0.0 0.00 0.00 0.00 57 1010.0
20260904033229 83 180 0.0 0.0 0.00 0.00 0.00 57 1010.1
20260904032729 83 202 0.0 0.0 0.00 0.00 0.00 57 1010.0
20260904032229 82 169 0.0 0.0 0.00 0.00 0.00 58 1009.9
20260904031729 83 92 0.0 1.0 0.00 0.00 0.00 58 1009.7
20260904031229 83 135 0.0 4.0 0.00 0.00 0.00 58 1009.7
20260904030728 83 135 0.0 4.0 0.00 0.00 0.00 58 1009.6
20260904030229 83 131 0.0 2.0 0.00 0.00 0.00 58 1009.6
20260904025728 83 178 0.0 2.0 0.00 0.00 0.00 57 1009.5
20260904025228 83 155 0.0 1.0 0.00 0.00 0.00 57 1009.5
20260904024729 83 107 0.0 0.0 0.00 0.00 0.00 58 1009.4
20260904024452 83 120 0.0 1.0 0.00 0.00 0.00 57 1009.2
20260904023728 83 128 0.0 1.0 0.00 0.00 0.00 58 1009.1
20260904023228 83 61 0.0 0.0 0.00 0.00 0.00 57 1009.0
20260904022728 83 61 0.0 0.0 0.00 0.00 0.00 57 1009.0
20260904022228 83 61 0.0 0.0 0.00 0.00 0.00 56 1009.0
20260904021724 83 61 0.0 0.0 0.00 0.00 0.00 56 1009.0
20260904021224 83 61 0.0 0.0 0.00 0.00 0.00 55 1008.9
20260904020727 83 59 0.0 0.0 0.00 0.00 0.00 56 1008.9
20260904020227 83 59 0.0 0.0 0.00 0.00 0.00 56 1009.0
20260904015727 83 59 0.0 0.0 0.00 0.00 0.00 56 1008.9
20260904015227 84 59 0.0 0.0 0.00 0.00 0.00 56 1008.9
20260904014727 84 104 0.0 5.0 0.00 0.00 0.00 54 1008.8
20260904014452 84 189 1.0 5.0 0.00 0.00 0.00 54 1008.8
20260904013727 85 176 0.0 9.0 0.00 0.00 0.00 53 1008.7
20260904013226 85 166 4.0 9.0 0.00 0.00 0.00 52 1008.8
20260904012944 85 179 3.0 11.0 0.00 0.00 0.00 52 1008.5
20260904012226 86 185 4.0 11.0 0.00 0.00 0.00 52 1008.4
20260904011726 86 188 6.0 11.0 0.00 0.00 0.00 51 1008.3
20260904011226 87 214 2.0 13.0 0.00 0.00 0.00 52 1008.1
20260904010726 87 204 5.0 13.0 0.00 0.00 0.00 51 1008.1
20260904010226 88 200 7.0 12.0 0.00 0.00 0.00 49 1008.1
20260904005943 88 219 4.0 9.0 0.00 0.00 0.00 48 1008.1
20260904005226 88 274 0.0 1.0 0.00 0.00 0.00 48 1007.8
20260904004944 87 290 0.0 0.0 0.00 0.00 0.00 49 1008.1
20260904004225 86 295 0.0 0.0 0.00 0.00 0.00 51 1008.2
20260904003726 87 334 0.0 0.0 0.00 0.00 0.00 51 1008.1
20260904003225 87 286 0.0 0.0 0.00 0.00 0.00 52 1007.9
20260904002725 87 290 0.0 3.0 0.00 0.00 0.00 52 1007.9
20260904002225 87 289 0.0 3.0 0.00 0.00 0.00 51 1007.8
20260904001725 87 292 0.0 1.0 0.00 0.00 0.00 51 1007.7
20260904001225 87 281 0.0 5.0 0.00 0.00 0.00 50 1007.8
20260904000724 87 220 0.0 7.0 0.00 0.00 0.00 50 1007.8
20260904000226 88 266 3.0 7.0 0.00 0.00 0.00 48 1008.1
20260903235724 88 265 1.0 10.0 0.00 0.00 0.00 48 1008.1
20260903235224 88 292 2.0 13.0 0.00 0.00 0.00 47 1008.1
20260903234944 89 259 6.0 13.0 0.00 0.00 0.00 47 1007.9
20260903234223 89 247 0.0 9.0 0.00 0.00 0.00 46 1008.1
20260903233724 89 257 2.0 11.0 0.00 0.00 0.00 46 1007.9
20260903233223 89 281 5.0 11.0 0.00 0.00 0.00 46 1007.8
20260903232724 89 265 3.0 7.0 0.00 0.00 0.00 45 1007.9
20260903232442 89 261 3.0 9.0 0.00 0.00 0.00 45 1007.9
20260903231723 89 241 2.0 9.0 0.00 0.00 0.00 44 1007.9
20260903231223 90 265 1.0 6.0 0.00 0.00 0.00 43 1007.9
20260903230724 90 247 1.0 6.0 0.00 0.00 0.00 43 1007.9
20260903230223 91 254 3.0 7.0 0.00 0.00 0.00 42 1007.9
20260903225724 92 286 4.0 7.0 0.00 0.00 0.00 42 1007.9
20260903225223 92 176 1.0 6.0 0.00 0.00 0.00 41 1007.9
20260903224723 91 240 2.0 5.0 0.00 0.00 0.00 41 1007.9
20260903224222 92 254 1.0 4.0 0.00 0.00 0.00 41 1007.8
20260903223722 92 227 0.0 6.0 0.00 0.00 0.00 41 1007.8
20260903223222 92 240 0.0 6.0 0.00 0.00 0.00 41 1007.8
20260903222722 92 190 0.0 4.0 0.00 0.00 0.00 40 1007.8
20260903222223 92 214 2.0 5.0 0.00 0.00 0.00 40 1007.9
20260903221722 91 279 2.0 5.0 0.00 0.00 0.00 41 1007.9
20260903221222 90 298 1.0 5.0 0.00 0.00 0.00 44 1008.1
20260903220942 90 8 2.0 5.0 0.00 0.00 0.00 43 1008.2
20260903220221 91 37 2.0 5.0 0.00 0.00 0.00 42 1008.2
20260903215722 92 58 0.0 0.0 0.00 0.00 0.00 40 1008.4
20260903215221 92 58 0.0 4.0 0.00 0.00 0.00 40 1008.4
20260903214722 91 224 1.0 5.0 0.00 0.00 0.00 43 1008.4
20260903214221 90 282 0.0 7.0 0.00 0.00 0.00 43 1008.4
20260903213721 92 274 4.0 7.0 0.00 0.00 0.00 42 1008.5
20260903213221 92 269 2.0 6.0 0.00 0.00 0.00 40 1008.6
20260903212721 93 274 3.0 9.0 0.00 0.00 0.00 41 1008.4
20260903212221 93 265 0.0 11.0 0.00 0.00 0.00 39 1008.6
20260903211721 92 302 6.0 11.0 0.00 0.00 0.00 40 1008.7
20260903211220 93 264 3.0 7.0 0.00 0.00 0.00 41 1008.7
20260903210721 92 217 1.0 4.0 0.00 0.00 0.00 42 1008.7
20260903210220 91 89 0.0 6.0 0.00 0.00 0.00 43 1008.8
20260903205720 91 355 3.0 6.0 0.00 0.00 0.00 42 1008.9
20260903205220 92 357 0.0 9.0 0.00 0.00 0.00 42 1008.9
20260903204720 92 306 0.0 9.0 0.00 0.00 0.00 41 1009.0
20260903204220 93 337 1.0 6.0 0.00 0.00 0.00 41 1009.0
20260903203720 92 266 2.0 6.0 0.00 0.00 0.00 42 1009.2
20260903203439 92 207 4.0 9.0 0.00 0.00 0.00 42 1009.1
20260903202719 93 283 3.0 9.0 0.00 0.00 0.00 41 1009.4
20260903202220 93 203 0.0 4.0 0.00 0.00 0.00 41 1009.5
20260903201719 92 230 1.0 5.0 0.00 0.00 0.00 42 1009.6
20260903201218 91 276 1.0 6.0 0.00 0.00 0.00 44 1009.6
20260903200719 91 283 1.0 6.0 0.00 0.00 0.00 44 1009.7
20260903200219 92 296 2.0 7.0 0.00 0.00 0.00 42 1009.8
20260903195718 92 209 2.0 7.0 0.00 0.00 0.00 43 1009.9
20260903195219 91 217 1.0 6.0 0.00 0.00 0.00 43 1009.9
20260903194719 92 220 3.0 6.0 0.00 0.00 0.00 43 1010.1
20260903194218 92 269 4.0 7.0 0.00 0.00 0.00 43 1010.1
20260903193719 91 180 3.0 7.0 0.00 0.00 0.00 44 1010.2
20260903193218 90 189 2.0 6.0 0.00 0.00 0.00 45 1010.2
20260903192718 89 90 0.0 5.0 0.00 0.00 0.00 47 1010.2
20260903192218 88 121 1.0 5.0 0.00 0.00 0.00 47 1010.3
20260903191718 90 65 1.0 4.0 0.00 0.00 0.00 45 1010.4
20260903191217 89 195 2.0 5.0 0.00 0.00 0.00 48 1010.5
20260903190718 89 231 1.0 5.0 0.00 0.00 0.00 47 1010.8
20260903190218 89 227 3.0 5.0 0.00 0.00 0.00 47 1010.8
20260903185717 88 244 0.0 4.0 0.00 0.00 0.00 48 1010.9
20260903185218 88 272 1.0 4.0 0.00 0.00 0.00 50 1010.9
20260903184717 88 210 0.0 6.0 0.00 0.00 0.00 50 1011.0
20260903184217 87 224 1.0 6.0 0.00 0.00 0.00 49 1011.1
20260903183717 87 241 1.0 4.0 0.00 0.00 0.00 51 1011.2
20260903183217 88 313 1.0 4.0 0.00 0.00 0.00 51 1011.3
20260903182716 88 285 0.0 3.0 0.00 0.00 0.00 51 1011.4
20260903182217 88 247 0.0 1.0 0.00 0.00 0.00 49 1011.5
20260903181716 89 200 0.0 4.0 0.00 0.00 0.00 50 1011.5
20260903181441 89 157 1.0 4.0 0.00 0.00 0.00 49 1011.6
20260903180933 88 151 0.0 2.0 0.00 0.00 0.00 49 1011.7
20260903180216 87 214 0.0 2.0 0.00 0.00 0.00 51 1011.7
20260903175716 86 172 0.0 4.0 0.00 0.00 0.00 52 1011.7
20260903175216 86 173 2.0 5.0 0.00 0.00 0.00 52 1011.8
20260903174715 86 220 2.0 6.0 0.00 0.00 0.00 53 1011.8
20260903174216 86 293 2.0 6.0 0.00 0.00 0.00 52 1011.8
20260903173715 87 213 2.0 5.0 0.00 0.00 0.00 52 1012.0
20260903173215 87 197 1.0 5.0 0.00 0.00 0.00 51 1012.0
20260903172716 87 207 2.0 5.0 0.00 0.00 0.00 51 1012.0
20260903172215 87 231 0.0 3.0 0.00 0.00 0.00 52 1012.0
20260903171715 86 92 1.0 3.0 0.00 0.00 0.00 54 1012.0
20260903171216 85 168 0.0 0.0 0.00 0.00 0.00 54 1012.0
20260903170715 85 152 0.0 0.0 0.00 0.00 0.00 56 1011.8
20260903170215 84 121 0.0 2.0 0.00 0.00 0.00 59 1012.0
20260903165714 84 152 1.0 2.0 0.00 0.00 0.00 57 1012.0
20260903165431 84 159 0.0 0.0 0.00 0.00 0.00 58 1012.0
20260903164938 83 80 0.0 0.0 0.00 0.00 0.00 59 1012.0
20260903164433 83 82 0.0 3.0 0.00 0.00 0.00 58 1012.0
20260903163714 83 158 2.0 3.0 0.00 0.00 0.00 59 1012.0
20260903163214 83 147 0.0 3.0 0.00 0.00 0.00 59 1012.0
20260903162932 82 162 0.0 4.0 0.00 0.00 0.00 61 1012.1
20260903162214 82 96 2.0 4.0 0.00 0.00 0.00 60 1012.0
20260903161936 82 82 0.0 4.0 0.00 0.00 0.00 60 1012.0
20260903161213 82 144 1.0 2.0 0.00 0.00 0.00 60 1012.1
20260903160713 81 111 0.0 3.0 0.00 0.00 0.00 61 1012.1
20260903160214 81 189 0.0 3.0 0.00 0.00 0.00 61 1012.1
20260903160157 81 149 0.0 1.0 0.00 0.00 0.00 62 1012.1
20260903155213 81 102 0.0 3.0 0.00 0.00 0.00 63 1012.1
20260903154713 81 109 1.0 3.0 0.00 0.00 0.00 63 1012.0
20260903154213 80 127 0.0 0.0 0.00 0.00 0.00 61 1012.1
20260903153713 80 133 0.0 0.0 0.00 0.00 0.00 63 1012.1
20260903153213 80 133 0.0 0.0 0.00 0.00 0.00 65 1012.1
20260903152713 80 149 0.0 1.0 0.00 0.00 0.00 67 1012.1
20260903152212 79 147 0.0 1.0 0.00 0.00 0.00 67 1012.2
20260903151712 79 152 0.0 2.0 0.00 0.00 0.00 68 1012.1
20260903151702 79 128 0.0 3.0 0.00 0.00 0.00 68 1012.1
20260903150712 79 128 1.0 3.0 0.00 0.00 0.00 67 1012.1
20260903150212 79 145 0.0 1.0 0.00 0.00 0.00 69 1012.0
20260903145712 79 114 0.0 3.0 0.00 0.00 0.00 68 1012.0